{"data":{"norad_id":59158,"epoch":"2026-09-20T22:20:55.486464Z","epoch_age_seconds":121552,"freshness":"FRESH","line1":"1 59158U 24044G   26263.93119776 -.00000458  00000+0 -71274-5 0  9998","line2":"2 59158  43.0007  84.5437 0001238 265.9760  94.0950 15.27579296143451","mean_motion":15.27579296,"eccentricity":0.0001238,"inclination_deg":43.0007,"raan_deg":84.5437,"arg_perigee_deg":265.976,"mean_anomaly_deg":94.095,"bstar":-7.1274e-6,"rev_number":14345,"period_min":94.266792157413,"perigee_km":482.20178897006,"apogee_km":483.90061916939,"semimajor_km":6861.1882040697,"source":"CELESTRAK","updated_at":"2026-09-21T09:00:34.056855Z"}}